Total_Precipitation_Accumulation
0.06 0.05 0.11 0.08 0.08 0.11 0.13 0.15 0.13 0.09 0.07 0.08 0.09 0.10 0.10 0.08 0.10 0.15 0.15 0.16 0.19 0.23 0.26 0.27 0.28 0.30 0.31 0.32 0.33 0.30 0.26 0.29 0.35 0.41 0.46 0.44 0.48 0.73 1.02 1.13 1.16 0.79 0.74
0.02 0.03 0.08 0.09 0.08 0.10 0.13 0.16 0.15 0.12 0.09 0.08 0.09 0.10 0.10 0.09 0.11 0.14 0.15 0.17 0.19 0.20 0.19 0.22 0.24 0.23 0.22 0.21 0.21 0.20 0.22 0.29 0.41 0.51 0.49 0.41 0.52 0.71 0.98 1.02 1.15 0.72 0.63
0.02 0.03 0.06 0.09 0.09 0.10 0.13 0.14 0.16 0.15 0.11 0.09 0.08 0.11 0.13 0.11 0.09 0.11 0.13 0.14 0.15 0.15 0.15 0.16 0.17 0.17 0.13 0.11 0.13 0.18 0.26 0.36 0.53 0.66 0.84 0.50 0.39 0.70 0.94 0.95 0.79 0.55 0.52
0.03 0.03 0.04 0.07 0.10 0.10 0.10 0.13 0.16 0.16 0.13 0.11 0.12 0.14 0.14 0.12 0.09 0.09 0.11 0.11 0.11 0.11 0.11 0.11 0.12 0.11 0.09 0.08 0.11 0.18 0.26 0.41 0.62 0.90 1.04 0.58 0.33 0.53 0.75 0.66 0.55 0.47 0.48
0.07 0.06 0.06 0.08 0.09 0.11 0.11 0.11 0.16 0.19 0.17 0.15 0.17 0.17 0.15 0.15 0.12 0.11 0.12 0.13 0.12 0.10 0.08 0.09 0.09 0.08 0.08 0.09 0.12 0.18 0.26 0.40 0.65 0.88 0.77 0.66 0.60 0.51 0.54 0.55 0.55 0.54 0.51
0.12 0.08 0.09 0.12 0.13 0.13 0.11 0.11 0.15 0.20 0.18 0.17 0.18 0.21 0.18 0.20 0.22 0.17 0.12 0.13 0.14 0.11 0.09 0.08 0.08 0.07 0.09 0.11 0.14 0.20 0.29 0.46 0.59 0.54 0.47 0.47 0.56 0.59 0.52 0.66 0.75 0.72 0.60
0.19 0.13 0.13 0.15 0.16 0.16 0.14 0.15 0.15 0.16 0.16 0.14 0.14 0.14 0.14 0.17 0.25 0.20 0.15 0.14 0.14 0.12 0.09 0.08 0.08 0.09 0.10 0.12 0.15 0.21 0.32 0.49 0.53 0.42 0.45 0.51 0.49 0.44 0.54 0.79 0.96 0.93 0.77
0.39 0.27 0.23 0.23 0.21 0.19 0.17 0.18 0.18 0.16 0.14 0.12 0.11 0.10 0.11 0.12 0.14 0.16 0.17 0.16 0.15 0.12 0.09 0.10 0.10 0.09 0.11 0.13 0.16 0.22 0.32 0.46 0.45 0.43 0.38 0.37 0.35 0.41 0.60 0.82 0.96 1.03 0.94
0.61 0.46 0.38 0.30 0.24 0.24 0.24 0.22 0.20 0.18 0.17 0.14 0.14 0.14 0.15 0.14 0.14 0.17 0.19 0.19 0.19 0.17 0.14 0.11 0.12 0.12 0.14 0.14 0.16 0.21 0.29 0.45 0.51 0.55 0.41 0.40 0.50 0.57 0.77 0.94 0.93 0.98 0.99
0.83 0.66 0.53 0.49 0.46 0.37 0.30 0.29 0.28 0.25 0.24 0.22 0.20 0.20 0.19 0.20 0.21 0.25 0.24 0.24 0.25 0.26 0.22 0.19 0.17 0.15 0.17 0.16 0.18 0.22 0.29 0.32 0.40 0.48 0.45 0.39 0.56 0.71 0.88 0.95 0.99 1.01 1.01
1.29 0.91 0.75 0.68 0.65 0.60 0.50 0.44 0.44 0.43 0.39 0.34 0.35 0.35 0.37 0.40 0.45 0.55 0.47 0.49 0.46 0.48 0.45 0.41 0.38 0.34 0.29 0.24 0.29 0.38 0.36 0.43 0.65 0.67 0.54 0.56 0.67 0.87 1.05 1.05 1.05 1.07 1.08
1.51 1.07 0.91 0.77 0.70 0.71 0.80 0.92 0.81 0.71 0.67 0.63 0.72 0.76 0.84 0.91 0.89 0.74 0.76 0.91 1.00 1.13 1.05 0.96 0.93 0.74 0.60 0.54 0.90 1.13 0.54 0.48 0.62 0.76 0.68 0.64 0.83 1.16 1.35 1.22 1.09 1.05 1.01
1.45 1.16 1.02 1.00 0.97 0.89 1.01 1.15 1.13 1.04 1.03 0.94 0.96 1.08 1.18 1.12 1.04 0.98 1.04 1.24 1.34 1.48 1.45 1.62 1.64 1.33 1.29 1.30 1.44 1.39 0.82 0.79 0.75 0.71 0.80 0.91 1.01 1.31 1.60 1.42 1.21 1.10 1.00
1.85 1.55 1.37 1.37 1.26 1.19 1.18 1.28 1.30 1.28 1.19 1.12 1.20 1.23 1.41 1.48 1.41 1.39 1.48 1.51 1.60 1.74 2.05 1.94 2.05 1.95 1.81 1.72 1.67 1.50 1.24 1.21 1.11 1.09 1.36 1.22 1.11 1.38 1.72 1.60 1.37 1.27 1.17
2.34 2.23 1.96 1.66 1.55 1.51 1.60 1.58 1.51 1.49 1.46 1.49 1.59 1.59 1.65 1.82 1.81 1.84 1.78 1.79 1.68 1.88 2.18 2.25 2.15 2.33 2.36 2.17 1.95 1.77 1.68 1.53 1.39 1.43 1.51 1.43 1.31 1.39 1.65 1.76 1.61 1.51 1.41
2.58 2.62 2.41 2.11 1.98 1.98 2.11 2.15 2.00 1.84 1.91 1.96 1.92 1.83 1.87 2.06 2.26 2.30 2.15 2.08 1.94 1.97 2.14 2.26 2.30 2.72 2.59 2.45 2.02 1.83 1.77 1.74 1.60 1.55 1.60 1.71 1.45 1.30 1.41 1.68 1.85 1.82 1.73
2.96 2.85 2.79 2.67 2.51 2.56 2.54 2.52 2.34 2.27 2.13 2.09 2.11 2.16 2.14 2.15 2.38 2.43 2.41 2.26 2.18 2.17 2.28 2.29 2.49 2.71 2.43 2.30 2.02 1.92 1.82 1.69 1.56 1.56 1.73 1.90 1.71 1.47 1.32 1.42 1.70 1.85 1.90
3.22 3.20 3.19 3.07 2.98 2.94 2.92 2.83 2.70 2.58 2.30 2.09 2.07 2.20 2.22 2.24 2.38 2.45 2.26 2.14 2.37 2.46 2.51 2.60 2.67 2.70 2.53 2.43 2.24 1.93 1.79 1.70 1.37 1.38 1.46 1.50 1.61 1.43 1.51 1.62 1.75 1.80 1.96
3.66 3.80 3.78 3.73 3.47 3.22 3.15 3.15 3.17 3.07 2.73 2.41 2.30 2.29 2.28 2.16 2.20 2.34 2.17 2.22 2.43 2.52 2.52 2.32 2.66 2.62 2.57 2.46 2.08 1.83 1.58 1.42 1.29 1.16 1.17 1.10 1.20 1.25 1.33 1.46 1.60 1.60 1.88
3.82 4.19 4.07 3.95 3.95 3.88 3.75 3.51 3.47 3.20 2.90 2.76 2.64 2.58 2.40 2.26 2.25 2.37 2.23 2.31 2.45 2.52 2.46 2.46 2.60 2.61 2.44 2.39 1.93 1.64 1.41 1.14 1.14 1.10 0.95 0.97 1.01 0.96 1.01 1.21 1.48 1.29 1.61
4.00 4.28 4.36 4.52 4.46 4.22 3.86 3.45 3.26 3.11 3.02 2.87 2.64 2.37 2.27 2.25 2.32 2.47 2.34 2.48 2.47 2.31 2.28 2.43 2.56 2.41 2.19 2.35 2.14 1.56 1.17 0.97 0.98 0.93 0.93 0.98 0.94 0.94 1.07 1.31 1.40 1.33 1.30
3.66 4.08 4.17 3.93 3.80 3.69 3.47 3.32 3.26 3.35 3.04 2.75 2.55 2.28 2.09 2.11 2.18 2.14 2.21 2.15 2.18 2.24 2.23 2.28 2.44 2.24 1.89 2.08 2.07 1.81 1.27 1.04 0.89 0.77 0.90 0.92 0.91 1.02 1.08 1.21 1.45 1.58 1.47
2.73 2.97 3.12 3.23 3.06 2.89 2.80 2.80 2.87 2.97 2.69 2.41 2.28 2.15 1.96 1.86 1.82 1.82 1.83 1.94 2.15 2.23 2.18 2.21 2.22 2.09 1.77 1.76 1.90 1.98 1.49 1.13 0.91 0.67 0.69 0.82 0.99 1.16 1.14 1.29 1.42 1.55 1.61
2.31 2.42 2.47 2.48 2.53 2.43 2.39 2.37 2.26 2.17 2.03 1.94 1.92 1.85 1.81 1.73 1.65 1.59 1.60 1.65 1.72 1.78 1.81 1.70 1.81 1.94 1.89 1.71 1.79 1.81 1.66 1.48 1.30 0.90 0.72 0.74 0.92 1.03 1.13 1.14 1.16 1.26 1.54
1.69 1.84 1.96 2.04 2.06 2.04 2.02 1.98 1.94 1.84 1.83 1.78 1.70 1.63 1.56 1.50 1.51 1.45 1.38 1.36 1.31 1.35 1.47 1.49 1.58 1.63 1.67 1.65 1.68 1.74 1.70 1.66 1.60 1.41 1.05 0.99 0.97 0.87 0.94 1.03 1.07 1.13 1.41
1.39 1.52 1.65 1.76 1.76 1.76 1.75 1.74 1.69 1.64 1.64 1.58 1.48 1.45 1.39 1.35 1.27 1.21 1.20 1.22 1.18 1.21 1.29 1.37 1.43 1.39 1.46 1.53 1.56 1.62 1.68 1.66 1.69 1.69 1.38 1.23 1.14 0.97 0.97 0.93 0.94 1.01 1.24